Weather History for Daggett-Barstow, CA

Change the Weather History Date:

Sunday, April 1, 2012

  Actual Average Record
Temperature  
Mean Temperature 56 °F -  
Max Temperature 69 °F 71 °F 95 °F (2011)
Min Temperature 45 °F 48 °F 35 °F (1999)
Degree Days  
Heating Degree Days 8    
Growing Degree Days 6 (Base 50)    
Moisture  
Dew Point 28 °F    
Average Humidity 41    
Maximum Humidity 81    
Minimum Humidity 14    
Precipitation  
Precipitation 0.00 in - - ()
Sea Level Pressure  
Sea Level Pressure 29.92 in    
Wind  
Wind Speed 20 mph (WSW)    
Max Wind Speed 31 mph    
Max Gust Speed 38 mph    
Visibility 10 miles    
Events Rain    
Averages and records for this station are not official NWS values.
T = Trace of Precipitation, MM = Missing Value Source: NWS Daily Summary

Daily Weather History Graph

Daily Weather History Graph

Search for Another Location

Airport:

Trip Planner

Search our weather history database for the weather conditions in past years. The results will help you decide how hot, cold, wet, or windy it might be!

Date:

Astronomy

Apr. 01, 2012 Rise Set
Actual Time 6:33 AM PDT 7:08 PM PDT
Civil Twilight 6:07 AM PDT 7:34 PM PDT
Nautical Twilight 5:37 AM PDT 8:04 PM PDT
Astronomical Twilight 5:07 AM PDT 8:35 PM PDT
Moon 1:56 PM PDT (4/1) 2:59 AM PDT (4/1)
Length of Visible Light 13h 26m
Length of Day
12h 35m
Waxing Gibbous, 70% of the Moon is Illuminated
Apr 1
Waxing Gibbous
Apr 6
Full
Apr 13
Last Quarter
Apr 21
New
Apr 29
First Quarter

Hourly Weather History & Observations

Time (PDT) Temp. Windchill Dew Point Humidity Pressure Visibility Wind Dir Wind Speed Gust Speed Precip Events Conditions
12:05 AM 46.4 °F 38.5 °F 41.0 °F 81% 29.92 in 10.0 mi West 21.9 mph - 0.01 in Rain Light Rain
12:50 AM 46.0 °F 39.3 °F 39.9 °F 79% 29.89 in 10.0 mi WSW 16.1 mph - 0.02 in Rain Light Rain
1:50 AM 46.9 °F - 37.0 °F 68% 29.88 in 10.0 mi WSW 15.0 mph - 0.00 in   Overcast
2:50 AM 46.0 °F 38.5 °F 34.0 °F 63% 29.88 in 10.0 mi WSW 19.6 mph 25.3 mph N/A   Partly Cloudy
3:50 AM 45.0 °F 37.1 °F 33.1 °F 63% 29.86 in 10.0 mi WSW 19.6 mph 32.2 mph N/A   Clear
4:50 AM 45.0 °F 36.0 °F 30.9 °F 58% 29.86 in 10.0 mi WSW 25.3 mph 32.2 mph N/A   Clear
5:50 AM 46.0 °F 37.0 °F 30.0 °F 54% 29.87 in 10.0 mi WSW 27.6 mph 34.5 mph N/A   Clear
6:50 AM 46.0 °F 37.2 °F 30.0 °F 54% 29.88 in 10.0 mi SW 26.5 mph 34.5 mph N/A   Clear
7:50 AM 48.9 °F - 32.0 °F 52% 29.88 in 10.0 mi WSW 31.1 mph 38.0 mph N/A   Clear
8:50 AM 51.1 °F - 32.0 °F 48% 29.91 in 10.0 mi WSW 25.3 mph 33.4 mph N/A   Clear
9:50 AM 55.0 °F - 30.0 °F 38% 29.93 in 10.0 mi WSW 27.6 mph 35.7 mph N/A   Clear
10:50 AM 57.9 °F - 28.9 °F 33% 29.94 in 10.0 mi West 24.2 mph 31.1 mph N/A   Clear
11:50 AM 61.0 °F - 26.1 °F 26% 29.94 in 10.0 mi WSW 19.6 mph 27.6 mph N/A   Clear
12:50 PM 63.0 °F - 23.0 °F 22% 29.94 in 10.0 mi WSW 15.0 mph 24.2 mph N/A   Clear
1:50 PM 64.9 °F - 21.9 °F 19% 29.92 in 10.0 mi WSW 11.5 mph 26.5 mph N/A   Clear
2:50 PM 66.9 °F - 19.9 °F 17% 29.90 in 10.0 mi West 17.3 mph 27.6 mph N/A   Clear
3:50 PM 68.0 °F - 18.0 °F 15% 29.89 in 10.0 mi West 20.7 mph 27.6 mph N/A   Partly Cloudy
4:50 PM 66.9 °F - 16.0 °F 14% 29.89 in 10.0 mi West 18.4 mph 25.3 mph N/A   Clear
5:50 PM 64.9 °F - 21.9 °F 19% 29.91 in 10.0 mi West 21.9 mph - N/A   Clear
6:50 PM 62.1 °F - 21.9 °F 21% 29.94 in 10.0 mi West 18.4 mph 27.6 mph N/A   Clear
7:50 PM 59.0 °F - 23.0 °F 25% 29.95 in 10.0 mi West 16.1 mph 21.9 mph N/A   Clear
9:50 PM 54.0 °F - 27.0 °F 35% 30.02 in 10.0 mi WSW 18.4 mph - N/A   Clear
10:50 PM 51.1 °F - 28.0 °F 41% 30.04 in 10.0 mi West 9.2 mph - N/A   Clear
11:50 PM 48.9 °F - 28.9 °F 46% 30.05 in 10.0 mi WNW 16.1 mph - N/A   Clear